Fort Worth, TX

5:16 PM CDT on April 22, 2018 (GMT -0500)
Fort Worth Meacham International

Weather History for KFTW - April, 2014

Change the Weather History Date:

Friday, April 4, 2014

  Actual Average Record
Temperature  
Mean Temperature 55 °F -  
Max Temperature 66 °F 70 °F 86 °F (2017)
Min Temperature 44 °F 50 °F 39 °F (1998)
Degree Days  
Heating Degree Days 10    
Growing Degree Days 5 (Base 50)    
Moisture  
Dew Point 35 °F    
Average Humidity 48    
Maximum Humidity 71    
Minimum Humidity 30    
Precipitation  
Precipitation 0.00 in - - ()
Sea Level Pressure  
Sea Level Pressure 30.09 in    
Wind  
Wind Speed 15 mph (North)    
Max Wind Speed 24 mph    
Max Gust Speed 38 mph    
Visibility 10 miles    
Events      
Averages and records for this station are not official NWS values.
T = Trace of Precipitation, MM = Missing Value Source: NWS Daily Summary

Daily Weather History Graph

Daily Weather History Graph

Search for Another Location

Airport or City:

Astronomy

Apr. 04, 2014 Rise Set
Actual Time 7:13 AM CDT 7:51 PM CDT
Civil Twilight 6:48 AM CDT 8:16 PM CDT
Nautical Twilight 6:19 AM CDT 8:46 PM CDT
Astronomical Twilight 5:49 AM CDT 9:16 PM CDT
Moon 10:42 AM CDT (4/4) 12:00 AM CDT (4/4)
Length of Visible Light 13h 28m
Length of Day
12h 38m
Waxing Crescent, 25% of the Moon is Illuminated
Apr 4
Waxing Crescent
Apr 7
First Quarter
Apr 15
Full
Apr 22
Last Quarter
Apr 29
New

Hourly Weather History & Observations

Time (CDT) Temp. Windchill Dew Point Humidity Pressure Visibility Wind Dir Wind Speed Gust Speed Precip Events Conditions
12:53 AM 57.9 °F - 39.0 °F 49% 29.91 in 10.0 mi NNW 24.2 mph 38.0 mph N/A   Mostly Cloudy
1:53 AM 55.0 °F - 37.9 °F 53% 29.95 in 10.0 mi NNW 17.3 mph 28.8 mph N/A   Clear
2:53 AM 52.0 °F - 37.0 °F 57% 29.97 in 10.0 mi NNW 19.6 mph 26.5 mph N/A   Clear
3:53 AM 50.0 °F - 36.0 °F 59% 30.02 in 10.0 mi North 16.1 mph 23.0 mph N/A   Clear
4:53 AM 48.0 °F - 34.0 °F 58% 30.06 in 10.0 mi NNW 13.8 mph 24.2 mph N/A   Clear
5:53 AM 46.0 °F 41.4 °F 34.0 °F 63% 30.09 in 10.0 mi NW 9.2 mph - N/A   Clear
6:53 AM 44.1 °F 39.0 °F 35.1 °F 71% 30.10 in 10.0 mi NNW 9.2 mph - N/A   Clear
7:53 AM 44.1 °F 39.0 °F 35.1 °F 71% 30.14 in 10.0 mi NW 9.2 mph - N/A   Clear
8:53 AM 46.9 °F - 36.0 °F 66% 30.16 in 10.0 mi North 15.0 mph - N/A   Clear
9:53 AM 50.0 °F - 36.0 °F 59% 30.17 in 10.0 mi North 15.0 mph 23.0 mph N/A   Clear
10:53 AM 54.0 °F - 36.0 °F 51% 30.17 in 10.0 mi North 15.0 mph 24.2 mph N/A   Clear
11:53 AM 57.0 °F - 35.1 °F 44% 30.19 in 10.0 mi NNE 13.8 mph 20.7 mph N/A   Clear
12:53 PM 59.0 °F - 37.0 °F 44% 30.18 in 10.0 mi NNE 15.0 mph - N/A   Clear
1:53 PM 63.0 °F - 37.9 °F 40% 30.16 in 10.0 mi North 11.5 mph 21.9 mph N/A   Clear
2:53 PM 64.9 °F - 39.0 °F 39% 30.13 in 10.0 mi North 12.7 mph 21.9 mph N/A   Clear
3:53 PM 64.9 °F - 36.0 °F 34% 30.09 in 10.0 mi NE 13.8 mph 17.3 mph N/A   Clear
4:53 PM 66.0 °F - 35.1 °F 32% 30.08 in 10.0 mi NE 12.7 mph 20.7 mph N/A   Clear
5:53 PM 66.0 °F - 34.0 °F 30% 30.06 in 10.0 mi NNE 10.4 mph - N/A   Clear
6:53 PM 63.0 °F - 32.0 °F 31% 30.07 in 10.0 mi NNE 9.2 mph - N/A   Clear
7:53 PM 60.1 °F - 32.0 °F 35% 30.07 in 10.0 mi North 8.1 mph - N/A   Clear
8:53 PM 60.1 °F - 33.1 °F 36% 30.08 in 10.0 mi NE 3.5 mph - N/A   Clear
9:53 PM 57.9 °F - 34.0 °F 41% 30.10 in 10.0 mi NE 3.5 mph - N/A   Clear
10:53 PM 57.9 °F - 34.0 °F 41% 30.11 in 10.0 mi ENE 4.6 mph - N/A   Clear
11:53 PM 57.0 °F - 34.0 °F 42% 30.11 in 10.0 mi East 3.5 mph - N/A   Clear